Volver al catálogo

GHOST-2

LostCienciaPO
NORAD 56197·PAYLOAD·🇺🇸 United States

Lanzado Apr 15, 2023 desde Vandenberg Space Force Base

Loading…

Próximos Pases (próximas 24 horas)

TLE

ObsoletoSource: Space-Track

Época: Dec 15, 2025, 05:04 UTC

1 56197U 23054V   25349.21142485  .10341550  25867-5  16806-3 0  9998
2 56197  97.2907 265.6599 0007299 240.3024 119.7554 16.47991985150937

Sigue GHOST-2 en tiempo real con AllMySat

Download on the App Store